Waukegan, IL

11:22 PM CDT on July 27, 2017 (GMT -0500)
Waukegan Regional

Weather History for KUGN - September, 2013

Change the Weather History Date:

Sunday, September 15, 2013

  Actual Average Record
Temperature  
Mean Temperature 57 °F -  
Max Temperature 60 °F 72 °F 86 °F (2004)
Min Temperature 53 °F 54 °F 37 °F (2007)
Degree Days  
Heating Degree Days 8 4  
Month to date heating degree days 34 35  
Since 1 July heating degree days 73 63  
Cooling Degree Days 0 2  
Month to date cooling degree days 77 43  
Year to date cooling degree days 567 545  
Growing Degree Days 6 (Base 50)    
Moisture  
Dew Point 53 °F    
Average Humidity 76    
Maximum Humidity 100    
Minimum Humidity 51    
Precipitation  
Precipitation 0.79 in 0.13 in 0.79 in (2013)
Month to date precipitation 1.05 1.57  
Year to date precipitation 22.89 26.02  
Sea Level Pressure  
Sea Level Pressure 30.06 in    
Wind  
Wind Speed 5 mph (SSW)    
Max Wind Speed 16 mph    
Max Gust Speed 25 mph    
Visibility 6 miles    
Events Rain    
T = Trace of Precipitation, MM = Missing Value Source: NWS Daily Summary

Daily Weather History Graph

Daily Weather History Graph

Search for Another Location

Airport or City:

Trip Planner

Search our weather history database for the weather conditions in past years. The results will help you decide how hot, cold, wet, or windy it might be!

Date:

Astronomy

Sep. 15, 2013 Rise Set
Actual Time 6:31 AM CDT 7:00 PM CDT
Civil Twilight 6:03 AM CDT 7:28 PM CDT
Nautical Twilight 5:30 AM CDT 8:02 PM CDT
Astronomical Twilight 4:55 AM CDT 8:36 PM CDT
Moon 4:31 PM CDT (9/15) 2:05 AM CDT (9/15)
Length of Visible Light 13h 25m
Length of Day
12h 29m
Waxing Gibbous, 82% of the Moon is Illuminated
Sep 15
Waxing Gibbous
Sep 19
Full
Sep 26
Last Quarter
Oct 4
New
Oct 11
First Quarter

Hourly Weather History & Observations

Time (CDT) Temp. Dew Point Humidity Pressure Visibility Wind Dir Wind Speed Gust Speed Precip Events Conditions
12:52 AM 55.9 °F 41.0 °F 57% 30.02 in 10.0 mi South 5.8 mph - N/A   Clear
1:52 AM 59.0 °F 41.0 °F 51% 30.00 in 10.0 mi South 8.1 mph - N/A   Clear
2:52 AM 57.0 °F 41.0 °F 55% 30.01 in 10.0 mi SSW 3.5 mph - N/A   Clear
3:52 AM 55.9 °F 43.0 °F 62% 30.03 in 10.0 mi SW 4.6 mph - N/A   Clear
4:52 AM 55.9 °F 45.0 °F 67% 30.03 in 10.0 mi Calm Calm - N/A   Scattered Clouds
5:52 AM 54.0 °F 46.9 °F 77% 30.04 in 6.0 mi Variable 3.5 mph - 0.01 in Rain Light Rain
6:52 AM 54.0 °F 50.0 °F 86% 30.05 in 10.0 mi Calm Calm - 0.06 in Rain Light Rain
7:31 AM 53.6 °F 51.8 °F 94% 30.05 in 2.5 mi SSW 6.9 mph - 0.05 in Rain Light Rain
7:39 AM 53.6 °F 51.8 °F 94% 30.04 in 5.0 mi SSW 8.1 mph - 0.05 in Rain Light Rain
7:52 AM 54.0 °F 51.1 °F 90% 30.03 in 6.0 mi South 6.9 mph - 0.06 in Rain Light Rain
8:52 AM 53.1 °F 52.0 °F 96% 30.05 in 4.0 mi SW 4.6 mph - 0.03 in Rain Light Rain
9:52 AM 54.0 °F 52.0 °F 93% 30.04 in 4.0 mi South 5.8 mph - 0.06 in Rain Light Rain
10:52 AM 54.0 °F 53.1 °F 97% 30.04 in 4.0 mi South 3.5 mph - 0.12 in Rain Light Rain
11:52 AM 54.0 °F 53.1 °F 97% 30.03 in 5.0 mi South 8.1 mph - 0.07 in Rain Light Rain
12:52 PM 54.0 °F 53.1 °F 97% 30.01 in 6.0 mi SSE 4.6 mph - 0.04 in Rain Light Rain
1:12 PM 55.4 °F 53.6 °F 94% 30.01 in 2.5 mi ESE 4.6 mph - 0.04 in Rain Rain
1:20 PM 55.4 °F 53.6 °F 94% 30.01 in 6.0 mi ESE 4.6 mph - 0.04 in Rain Light Rain
1:52 PM 55.9 °F 54.0 °F 93% 30.03 in 2.0 mi South 5.8 mph - 0.09 in Rain Heavy Rain
2:01 PM 55.4 °F 53.6 °F 94% 30.04 in 1.8 mi South 4.6 mph - 0.02 in Rain Rain
2:31 PM 55.4 °F 55.4 °F 100% 30.00 in 3.0 mi SE 8.1 mph - 0.13 in Rain Light Rain
2:52 PM 55.9 °F 55.0 °F 97% 30.01 in 7.0 mi South 5.8 mph - 0.13 in Rain Light Rain
3:12 PM 55.4 °F 55.4 °F 100% 30.02 in 8.0 mi South 5.8 mph - 0.00 in Rain Light Rain
3:52 PM 55.9 °F 55.0 °F 97% 30.03 in 5.0 mi Calm Calm - 0.00 in   Overcast
4:21 PM 55.4 °F 55.4 °F 100% 30.03 in 2.5 mi Calm Calm - 0.00 in Rain Light Rain
4:39 PM 55.4 °F 55.4 °F 100% 30.04 in 1.5 mi Calm Calm - 0.03 in Rain Light Rain
4:50 PM 57.2 °F 55.4 °F 94% 30.04 in 3.0 mi Calm Calm - 0.04 in Rain Light Rain
4:52 PM 57.0 °F 55.9 °F 96% 30.04 in 2.5 mi Calm Calm - 0.04 in Rain Light Rain
5:05 PM 57.2 °F 55.4 °F 94% 30.04 in 5.0 mi Calm Calm - 0.00 in   Overcast
5:21 PM 57.2 °F 55.4 °F 94% 30.05 in 5.0 mi Calm Calm - 0.00 in   Overcast
5:44 PM 57.2 °F 55.4 °F 94% 30.05 in 6.0 mi WNW 3.5 mph - 0.00 in   Overcast
5:52 PM 57.0 °F 55.9 °F 96% 30.06 in 6.0 mi Calm Calm - 0.00 in   Overcast
6:09 PM 57.2 °F 55.4 °F 94% 30.06 in 6.0 mi NW 3.5 mph - N/A   Overcast
6:22 PM 57.2 °F 55.4 °F 94% 30.07 in 6.0 mi NW 3.5 mph - N/A   Overcast
6:52 PM 57.0 °F 55.0 °F 93% 30.07 in 6.0 mi NW 3.5 mph - N/A   Overcast
7:18 PM 55.4 °F 55.4 °F 100% 30.08 in 8.0 mi Variable 3.5 mph - N/A   Overcast
7:52 PM 55.9 °F 55.0 °F 97% 30.09 in 8.0 mi NW 3.5 mph - N/A   Overcast
8:14 PM 57.2 °F 55.4 °F 94% 30.10 in 7.0 mi NNW 4.6 mph - N/A   Overcast
8:34 PM 57.2 °F 57.2 °F 100% 30.11 in 8.0 mi North 3.5 mph - N/A   Overcast
8:52 PM 57.9 °F 57.0 °F 97% 30.12 in 8.0 mi North 3.5 mph - 0.00 in   Overcast
9:10 PM 57.2 °F 57.2 °F 100% 30.12 in 8.0 mi North 3.5 mph - 0.00 in Rain Light Rain
9:14 PM 59.0 °F 57.2 °F 94% 30.13 in 7.0 mi NNE 4.6 mph - 0.00 in Rain Light Rain
9:52 PM 60.1 °F 57.0 °F 90% 30.13 in 10.0 mi NNE 8.1 mph - 0.00 in   Overcast
10:52 PM 60.1 °F 55.9 °F 86% 30.15 in 10.0 mi NNE 10.4 mph 17.3 mph N/A   Overcast
11:06 PM 60.8 °F 55.4 °F 82% 30.16 in 10.0 mi North 9.2 mph 17.3 mph N/A   Mostly Cloudy
11:16 PM 60.8 °F 57.2 °F 88% 30.16 in 10.0 mi NNE 12.7 mph 20.7 mph N/A   Mostly Cloudy
11:47 PM 59.0 °F 55.4 °F 88% 30.17 in 9.0 mi NNE 12.7 mph 18.4 mph 0.00 in Rain Light Rain
11:52 PM 59.0 °F 55.9 °F 90% 30.17 in 8.0 mi NNE 12.7 mph 19.6 mph 0.00 in Rain Light Rain